Location: アルンシュタイン
(50.0000°N, 10.0000°E)
Time: 05:14:05
(UTC+01:00)

Envisat - Pass Details

Date: 29 October 2021
Orbit: 764 x 766 km, 98.2° (Epoch: 04 December)

Event Time Altitude Azimuth Distance (km) Brightness Sun altitude
Rises 06:29:57 0° 15° (NNE) 3,246 6.4 -15.7°
Reaches altitude 10° 06:32:17 10° 17° (NNE) 2,315 5.7 -15.3°
Maximum altitude 06:37:23 77° 103° (ESE) 790 3.2 -14.5°
Drops below altitude 10° 06:42:27 10° 190° (S) 2,296 5.4 -13.7°
Sets 06:44:45 0° 192° (SSW) 3,218 6.2 -13.3°
